QPF
0.00 0.00 0.00 0.00 0.00 0.00 0.00 0.00 0.00 0.00 0.00 0.00 0.00 0.00 0.00 0.00 0.00 0.00 0.00 0.00 0.00 0.00 0.00 0.00 0.00 0.00 0.00 0.00 0.00 0.00 0.00 0.00 0.00 0.00 0.00 0.00 0.00 0.00 0.00 0.00 0.00 0.00 0.00
0.00 0.00 0.00 0.00 0.00 0.00 0.00 0.00 0.00 0.00 0.00 0.00 0.00 0.00 0.00 0.00 0.00 0.00 0.00 0.00 0.00 0.00 0.00 0.00 0.00 0.00 0.00 0.00 0.00 0.00 0.00 0.00 0.00 0.00 0.00 0.00 0.00 0.00 0.00 0.00 0.00 0.00 0.00
0.00 0.00 0.00 0.00 0.00 0.00 0.00 0.00 0.00 0.00 0.00 0.00 0.00 0.00 0.00 0.00 0.00 0.00 0.00 0.00 0.00 0.00 0.00 0.00 0.00 0.00 0.00 0.00 0.00 0.00 0.00 0.00 0.00 0.00 0.00 0.00 0.00 0.00 0.00 0.00 0.00 0.00 0.00
0.00 0.00 0.00 0.00 0.00 0.00 0.00 0.00 0.00 0.00 0.00 0.00 0.00 0.00 0.00 0.00 0.00 0.00 0.00 0.00 0.00 0.00 0.00 0.00 0.00 0.00 0.00 0.00 0.00 0.00 0.00 0.00 0.00 0.00 0.00 0.00 0.00 0.00 0.00 0.00 0.00 0.00 0.00
0.00 0.00 0.00 0.00 0.00 0.00 0.00 0.00 0.00 0.00 0.00 0.00 0.00 0.00 0.00 0.00 0.00 0.00 0.00 0.00 0.00 0.00 0.00 0.00 0.00 0.00 0.00 0.00 0.00 0.00 0.00 0.00 0.00 0.00 0.00 0.00 0.00 0.00 0.00 0.00 0.00 0.00 0.00
0.00 0.00 0.00 0.00 0.00 0.00 0.00 0.00 0.00 0.00 0.00 0.00 0.00 0.00 0.00 0.00 0.00 0.00 0.00 0.00 0.00 0.00 0.00 0.00 0.00 0.00 0.00 0.00 0.00 0.00 0.00 0.00 0.00 0.00 0.00 0.00 0.00 0.00 0.00 0.00 0.00 0.00 0.00
0.00 0.00 0.00 0.00 0.00 0.00 0.00 0.00 0.00 0.00 0.00 0.00 0.00 0.00 0.00 0.00 0.00 0.00 0.00 0.00 0.00 0.00 0.00 0.00 0.00 0.00 0.00 0.00 0.00 0.00 0.00 0.00 0.00 0.00 0.00 0.00 0.00 0.00 0.00 0.00 0.00 0.00 0.00
0.00 0.00 0.00 0.00 0.00 0.00 0.00 0.00 0.00 0.00 0.00 0.00 0.00 0.00 0.00 0.00 0.00 0.00 0.00 0.00 0.00 0.00 0.00 0.00 0.00 0.00 0.00 0.00 0.00 0.00 0.00 0.00 0.00 0.00 0.00 0.00 0.00 0.00 0.00 0.00 0.00 0.00 0.00
0.00 0.00 0.00 0.00 0.00 0.01 0.00 0.00 0.00 0.00 0.00 0.00 0.00 0.00 0.00 0.00 0.00 0.00 0.00 0.00 0.00 0.00 0.00 0.00 0.00 0.00 0.00 0.00 0.00 0.00 0.00 0.00 0.00 0.00 0.00 0.00 0.00 0.00 0.00 0.00 0.00 0.00 0.00
0.00 0.00 0.00 0.00 0.00 0.01 0.00 0.00 0.00 0.00 0.00 0.00 0.00 0.00 0.00 0.00 0.00 0.00 0.00 0.00 0.00 0.00 0.00 0.00 0.00 0.00 0.00 0.00 0.00 0.00 0.00 0.00 0.00 0.00 0.00 0.00 0.00 0.00 0.00 0.00 0.00 0.00 0.00
0.00 0.00 0.00 0.00 0.00 0.00 0.00 0.00 0.00 0.00 0.00 0.00 0.00 0.00 0.00 0.00 0.00 0.00 0.00 0.00 0.00 0.00 0.00 0.00 0.00 0.00 0.00 0.00 0.00 0.00 0.00 0.00 0.00 0.00 0.00 0.00 0.00 0.00 0.00 0.00 0.00 0.00 0.00
0.00 0.00 0.00 0.00 0.00 0.00 0.00 0.00 0.00 0.00 0.00 0.00 0.00 0.00 0.00 0.00 0.00 0.00 0.00 0.00 0.00 0.00 0.00 0.00 0.00 0.00 0.00 0.00 0.00 0.00 0.00 0.00 0.00 0.00 0.00 0.00 0.00 0.00 0.00 0.00 0.00 0.00 0.00
0.00 0.00 0.00 0.00 0.00 0.00 0.00 0.00 0.00 0.00 0.00 0.00 0.00 0.00 0.00 0.00 0.00 0.00 0.00 0.00 0.00 0.00 0.00 0.00 0.00 0.00 0.00 0.00 0.00 0.00 0.00 0.00 0.00 0.00 0.00 0.00 0.00 0.00 0.00 0.00 0.00 0.00 0.00
0.00 0.00 0.00 0.00 0.00 0.00 0.00 0.00 0.00 0.00 0.00 0.00 0.00 0.00 0.00 0.00 0.00 0.00 0.00 0.00 0.00 0.00 0.00 0.00 0.00 0.00 0.00 0.00 0.00 0.00 0.00 0.00 0.00 0.00 0.00 0.00 0.00 0.00 0.00 0.00 0.00 0.00 0.00
0.00 0.00 0.00 0.00 0.00 0.00 0.00 0.00 0.00 0.00 0.00 0.00 0.00 0.00 0.00 0.00 0.00 0.00 0.00 0.00 0.00 0.00 0.00 0.00 0.00 0.00 0.00 0.00 0.00 0.00 0.00 0.00 0.00 0.00 0.00 0.00 0.00 0.00 0.00 0.00 0.00 0.00 0.00
0.00 0.00 0.00 0.00 0.00 0.00 0.00 0.00 0.00 0.00 0.00 0.00 0.00 0.00 0.00 0.00 0.00 0.00 0.00 0.00 0.00 0.00 0.00 0.00 0.00 0.00 0.00 0.00 0.00 0.00 0.00 0.00 0.00 0.00 0.00 0.00 0.00 0.00 0.00 0.00 0.00 0.00 0.00
0.00 0.00 0.00 0.00 0.00 0.00 0.00 0.00 0.00 0.00 0.00 0.00 0.00 0.00 0.00 0.00 0.00 0.00 0.00 0.00 0.00 0.00 0.00 0.00 0.00 0.00 0.00 0.00 0.00 0.00 0.00 0.00 0.00 0.00 0.00 0.00 0.00 0.00 0.00 0.00 0.00 0.00 0.00
0.00 0.00 0.00 0.00 0.00 0.00 0.00 0.00 0.00 0.00 0.00 0.00 0.00 0.00 0.00 0.00 0.00 0.00 0.00 0.00 0.00 0.00 0.00 0.00 0.00 0.00 0.00 0.00 0.00 0.00 0.00 0.00 0.00 0.00 0.00 0.00 0.00 0.00 0.00 0.00 0.00 0.00 0.00
0.00 0.00 0.00 0.00 0.00 0.00 0.00 0.00 0.00 0.00 0.00 0.00 0.00 0.00 0.00 0.00 0.00 0.00 0.00 0.00 0.00 0.00 0.00 0.00 0.00 0.00 0.00 0.00 0.00 0.00 0.00 0.00 0.00 0.00 0.00 0.00 0.00 0.00 0.00 0.00 0.00 0.00 0.00
0.00 0.00 0.00 0.00 0.00 0.00 0.00 0.00 0.00 0.00 0.00 0.00 0.00 0.00 0.00 0.00 0.00 0.00 0.00 0.00 0.00 0.00 0.00 0.00 0.00 0.00 0.00 0.00 0.00 0.00 0.00 0.00 0.00 0.00 0.00 0.00 0.00 0.00 0.00 0.00 0.00 0.00 0.00
0.00 0.00 0.00 0.00 0.00 0.00 0.00 0.00 0.00 0.00 0.00 0.00 0.00 0.00 0.00 0.00 0.00 0.00 0.00 0.00 0.00 0.00 0.00 0.00 0.00 0.00 0.00 0.00 0.00 0.00 0.00 0.00 0.00 0.00 0.00 0.00 0.00 0.00 0.00 0.00 0.00 0.00 0.00
0.00 0.00 0.00 0.00 0.00 0.00 0.00 0.00 0.00 0.00 0.00 0.00 0.00 0.00 0.00 0.00 0.00 0.00 0.00 0.00 0.00 0.00 0.00 0.00 0.00 0.00 0.00 0.00 0.00 0.00 0.00 0.00 0.00 0.00 0.00 0.00 0.00 0.00 0.00 0.00 0.00 0.00 0.00
0.00 0.00 0.00 0.00 0.00 0.00 0.00 0.00 0.00 0.00 0.00 0.00 0.00 0.00 0.00 0.00 0.00 0.00 0.00 0.00 0.00 0.00 0.00 0.00 0.00 0.00 0.00 0.00 0.00 0.00 0.00 0.00 0.00 0.00 0.00 0.00 0.00 0.00 0.00 0.00 0.00 0.00 0.00
0.00 0.00 0.00 0.00 0.00 0.00 0.00 0.00 0.00 0.00 0.00 0.00 0.00 0.00 0.00 0.00 0.00 0.00 0.00 0.00 0.00 0.00 0.00 0.00 0.00 0.00 0.00 0.00 0.00 0.00 0.00 0.00 0.00 0.00 0.00 0.00 0.00 0.00 0.00 0.00 0.00 0.00 0.00
0.00 0.00 0.00 0.00 0.00 0.00 0.00 0.00 0.00 0.00 0.00 0.00 0.00 0.00 0.00 0.00 0.00 0.00 0.00 0.00 0.00 0.00 0.00 0.00 0.00 0.00 0.00 0.00 0.00 0.00 0.00 0.00 0.00 0.00 0.00 0.00 0.00 0.00 0.00 0.00 0.00 0.00 0.00
0.00 0.00 0.00 0.00 0.00 0.00 0.00 0.00 0.00 0.00 0.00 0.00 0.00 0.00 0.00 0.00 0.00 0.00 0.00 0.00 0.00 0.00 0.00 0.00 0.00 0.00 0.00 0.00 0.00 0.00 0.00 0.00 0.00 0.00 0.00 0.00 0.00 0.00 0.00 0.00 0.00 0.00 0.00
MSLP
1014.58 1015.17 1015.50 1016.10 1016.80 1017.96 1018.44 1019.11 1019.86 1020.58 1021.12 1021.40 1021.81 1022.10 1022.19 1022.46 1022.73 1023.12 1023.38 1023.67 1024.11 1024.47 1024.82 1024.91 1025.18 1025.20 1025.50 1025.70 1025.87 1025.91 1025.87 1025.89 1026.60 1027.31 1027.50 1027.64 1027.43 1027.26 1027.00 1026.64 1026.49 1026.45 1026.26
1014.38 1015.25 1015.36 1016.15 1016.53 1017.44 1018.52 1018.92 1019.66 1020.34 1020.82 1021.40 1021.82 1022.15 1022.40 1022.61 1022.96 1023.25 1023.52 1024.01 1024.44 1024.85 1025.30 1025.34 1025.68 1025.89 1026.15 1026.27 1026.29 1026.28 1026.21 1026.17 1026.47 1027.38 1027.98 1028.15 1028.09 1027.83 1027.68 1027.33 1026.98 1026.80 1026.77
1013.13 1014.09 1015.13 1015.80 1016.87 1017.15 1018.39 1019.34 1019.51 1020.23 1020.76 1021.14 1021.75 1022.07 1022.47 1022.71 1023.08 1023.46 1023.82 1024.29 1024.68 1025.10 1025.49 1025.72 1026.06 1026.43 1026.67 1026.70 1026.66 1026.62 1026.54 1026.48 1026.56 1027.15 1028.25 1028.51 1028.51 1028.49 1028.14 1027.99 1027.78 1027.83 1027.33
1012.94 1013.77 1014.20 1015.91 1016.57 1017.80 1017.25 1018.70 1019.83 1020.01 1020.86 1021.37 1021.68 1022.08 1022.39 1022.78 1023.13 1023.62 1024.07 1024.60 1025.06 1025.41 1025.72 1026.00 1026.41 1026.80 1026.83 1026.86 1026.98 1027.03 1026.97 1027.03 1027.31 1027.72 1028.27 1028.70 1028.91 1028.96 1028.88 1028.79 1028.51 1028.49 1028.45
1012.43 1013.28 1014.04 1015.21 1016.35 1017.39 1017.94 1017.92 1018.99 1020.09 1020.59 1021.44 1021.83 1022.23 1022.48 1022.80 1023.09 1023.53 1024.15 1024.76 1025.29 1025.76 1026.12 1026.36 1026.82 1026.76 1026.83 1026.98 1027.22 1027.32 1027.32 1027.60 1027.87 1028.07 1028.61 1029.24 1029.58 1029.65 1029.61 1029.40 1028.96 1028.62 1028.88
1012.17 1012.97 1013.83 1015.07 1016.06 1017.16 1017.97 1018.18 1019.24 1019.75 1020.50 1021.51 1022.05 1022.41 1022.76 1022.87 1022.94 1023.41 1024.02 1024.77 1025.38 1025.86 1026.35 1026.68 1026.89 1026.92 1027.11 1027.23 1027.32 1027.34 1027.61 1027.90 1028.17 1028.49 1029.24 1029.79 1030.22 1030.18 1029.97 1029.58 1029.22 1028.93 1028.95
1012.01 1012.80 1013.56 1014.60 1015.71 1016.77 1017.48 1018.14 1019.07 1019.72 1020.56 1021.59 1022.23 1022.54 1022.98 1022.95 1023.02 1023.42 1024.01 1024.77 1025.45 1026.00 1026.47 1026.93 1027.28 1027.38 1027.63 1027.77 1027.73 1027.88 1028.00 1028.07 1028.39 1028.66 1029.38 1030.17 1030.50 1030.37 1030.14 1029.82 1029.57 1029.50 1029.66
1011.77 1012.65 1013.37 1014.29 1015.24 1016.31 1017.12 1017.94 1018.85 1019.59 1020.51 1021.55 1022.32 1022.61 1022.94 1023.13 1023.25 1023.68 1024.28 1025.08 1025.59 1026.14 1026.65 1027.09 1027.50 1027.91 1028.27 1028.46 1028.55 1028.72 1028.82 1028.78 1028.87 1028.87 1029.52 1030.26 1030.41 1030.36 1030.10 1029.85 1029.73 1029.71 1029.98
1011.84 1012.36 1013.03 1013.81 1014.86 1015.77 1016.61 1017.61 1018.54 1019.45 1020.34 1021.30 1021.96 1022.63 1023.02 1023.24 1023.40 1024.00 1024.62 1025.34 1025.93 1026.45 1026.93 1027.35 1027.71 1028.09 1027.82 1027.97 1028.78 1029.09 1029.37 1029.58 1029.04 1029.18 1029.53 1029.67 1029.68 1029.58 1029.91 1029.95 1030.08 1029.95 1030.18
1011.19 1011.88 1012.65 1013.47 1014.44 1015.19 1016.14 1017.23 1018.33 1019.48 1020.26 1020.96 1021.89 1022.32 1022.94 1023.22 1023.40 1023.96 1024.66 1025.26 1025.92 1026.45 1026.90 1027.23 1027.39 1027.97 1027.69 1027.97 1028.51 1028.99 1029.59 1029.89 1029.89 1030.25 1029.79 1029.46 1029.31 1029.44 1029.70 1030.18 1030.43 1030.59 1030.62
1011.15 1011.79 1012.44 1013.21 1014.05 1014.86 1015.85 1017.15 1018.25 1019.02 1020.00 1020.88 1021.47 1022.08 1022.73 1022.94 1023.30 1023.65 1024.32 1024.96 1025.44 1026.04 1026.49 1026.97 1027.25 1027.38 1027.59 1027.74 1028.02 1028.43 1028.76 1029.41 1029.63 1029.91 1030.08 1030.25 1030.14 1029.81 1029.89 1029.95 1030.10 1030.34 1030.51
1011.19 1011.83 1012.53 1013.21 1014.04 1014.93 1015.92 1017.18 1018.03 1018.92 1019.70 1020.49 1021.20 1021.85 1022.40 1022.77 1023.20 1023.36 1023.96 1024.58 1024.99 1025.51 1026.08 1026.53 1026.94 1026.95 1027.34 1027.55 1028.02 1028.01 1028.28 1029.00 1029.40 1029.79 1029.93 1030.10 1030.13 1030.07 1030.22 1029.98 1029.73 1029.82 1029.92
1011.34 1011.94 1012.50 1013.19 1013.99 1014.85 1015.95 1016.96 1017.85 1018.60 1019.22 1019.95 1020.71 1021.42 1022.07 1022.53 1023.01 1023.20 1023.54 1024.00 1024.56 1025.36 1025.54 1025.92 1026.34 1026.46 1027.03 1027.56 1027.77 1027.79 1028.55 1029.43 1029.53 1030.01 1030.09 1030.06 1029.72 1029.29 1029.26 1029.45 1029.35 1029.27 1029.27
1011.38 1011.99 1012.54 1013.20 1014.19 1014.90 1015.67 1016.49 1017.26 1017.93 1018.59 1019.28 1020.04 1020.81 1021.49 1022.34 1022.71 1023.01 1023.42 1023.71 1024.22 1025.11 1025.27 1025.57 1026.15 1026.76 1027.69 1028.27 1028.40 1028.08 1028.83 1029.21 1029.28 1029.46 1029.60 1029.36 1029.32 1029.21 1029.31 1029.34 1029.49 1029.56 1029.51
1011.26 1011.79 1012.41 1013.12 1013.84 1014.73 1015.42 1015.96 1016.60 1017.07 1017.55 1018.28 1019.13 1019.75 1020.73 1021.69 1021.84 1022.06 1022.68 1023.32 1023.95 1024.79 1025.81 1026.47 1026.98 1027.70 1028.14 1028.32 1028.38 1028.54 1028.87 1029.02 1029.03 1028.91 1029.03 1029.16 1029.14 1029.11 1029.22 1029.24 1029.39 1029.58 1029.87
1011.29 1011.80 1012.22 1012.89 1013.63 1014.31 1015.06 1015.79 1016.31 1016.69 1017.14 1017.60 1017.94 1018.43 1019.44 1019.56 1020.38 1021.23 1021.89 1022.52 1023.32 1024.32 1025.38 1026.31 1026.76 1027.17 1027.49 1027.74 1027.90 1028.01 1028.06 1028.19 1028.23 1028.35 1028.55 1028.74 1029.03 1029.15 1029.19 1029.16 1029.26 1029.53 1029.85
1011.18 1011.63 1012.15 1012.64 1013.21 1013.83 1014.51 1015.20 1015.94 1016.57 1016.88 1017.13 1017.43 1017.53 1018.03 1018.76 1019.66 1020.40 1021.06 1021.76 1022.54 1023.78 1024.48 1025.08 1025.54 1026.03 1026.33 1026.57 1026.76 1026.97 1027.04 1027.04 1027.15 1027.48 1027.78 1028.08 1028.37 1028.62 1029.04 1029.28 1029.26 1029.60 1029.60
1011.11 1011.52 1011.92 1012.37 1012.82 1013.41 1014.03 1014.71 1015.40 1016.07 1016.64 1017.03 1017.12 1017.37 1017.72 1018.23 1018.78 1019.47 1020.25 1021.34 1022.33 1022.85 1023.31 1023.75 1024.23 1024.64 1025.03 1025.34 1025.57 1025.74 1025.92 1026.10 1026.39 1026.63 1026.99 1027.23 1027.57 1027.90 1028.53 1028.67 1028.82 1028.96 1029.07
1011.11 1011.45 1011.80 1012.18 1012.63 1013.11 1013.71 1014.37 1014.96 1015.67 1016.26 1016.73 1017.25 1017.42 1017.68 1018.10 1018.52 1018.99 1019.66 1020.14 1020.75 1021.32 1021.87 1022.46 1022.83 1023.28 1023.68 1024.00 1024.21 1024.40 1024.58 1024.84 1025.15 1025.57 1025.85 1026.21 1026.57 1027.05 1027.49 1027.62 1027.95 1028.18 1028.41
1011.14 1011.39 1011.67 1012.06 1012.53 1013.04 1013.52 1013.98 1014.51 1015.17 1015.88 1016.45 1016.84 1017.23 1017.67 1018.17 1018.33 1018.60 1018.99 1019.37 1019.69 1020.08 1020.49 1020.86 1021.45 1021.95 1022.33 1022.67 1022.93 1023.16 1023.39 1023.66 1023.97 1024.38 1024.69 1025.13 1025.49 1025.93 1026.35 1026.63 1027.10 1027.36 1027.56
1011.12 1011.45 1011.70 1012.03 1012.38 1012.82 1013.30 1013.82 1014.34 1014.91 1015.40 1015.89 1016.24 1016.56 1016.87 1017.37 1017.57 1017.79 1018.05 1018.26 1018.60 1019.02 1019.42 1019.78 1020.21 1020.58 1020.92 1021.26 1021.58 1021.84 1022.06 1022.30 1022.67 1023.07 1023.52 1024.01 1024.41 1025.03 1025.23 1025.53 1025.88 1026.28 1026.60
1011.03 1011.29 1011.61 1011.90 1012.28 1012.71 1013.14 1013.61 1014.09 1014.55 1014.97 1015.31 1015.60 1015.87 1016.29 1016.69 1016.90 1017.02 1017.13 1017.35 1017.55 1017.85 1018.25 1018.79 1019.19 1019.45 1019.63 1019.91 1020.17 1020.47 1020.72 1020.97 1021.33 1021.77 1022.22 1022.75 1023.25 1023.73 1024.18 1024.66 1025.04 1025.47 1025.86
1011.45 1011.59 1011.85 1012.14 1012.45 1012.84 1013.24 1013.61 1013.98 1014.31 1014.60 1014.84 1015.09 1015.34 1015.63 1015.91 1016.04 1016.23 1016.34 1016.49 1016.82 1017.12 1017.43 1017.88 1018.18 1018.38 1018.47 1018.65 1018.85 1019.05 1019.36 1019.49 1019.66 1020.22 1020.83 1021.45 1022.10 1022.65 1023.13 1023.64 1024.20 1024.83 1025.30
1011.96 1012.17 1012.32 1012.52 1012.80 1013.09 1013.38 1013.66 1013.87 1014.07 1014.25 1014.42 1014.58 1014.72 1014.81 1014.97 1015.19 1015.33 1015.49 1015.78 1016.13 1016.39 1016.62 1016.87 1017.04 1017.14 1017.32 1017.56 1017.68 1017.81 1017.96 1018.14 1018.46 1018.85 1019.30 1019.99 1020.80 1021.58 1022.31 1023.04 1023.68 1024.35 1024.98
1012.53 1012.54 1012.62 1012.83 1013.05 1013.28 1013.49 1013.65 1013.81 1013.95 1014.09 1014.17 1014.28 1014.37 1014.31 1014.35 1014.49 1014.64 1014.83 1015.02 1015.26 1015.52 1015.62 1015.74 1015.93 1016.01 1016.23 1016.38 1016.52 1016.61 1016.73 1017.00 1017.39 1017.81 1018.39 1019.13 1020.01 1020.94 1021.89 1022.73 1023.55 1024.24 1024.88
1012.91 1012.95 1013.08 1013.23 1013.39 1013.52 1013.61 1013.71 1013.82 1013.89 1013.93 1013.96 1014.04 1014.08 1013.98 1013.99 1013.97 1014.03 1014.12 1014.31 1014.53 1014.68 1014.65 1014.52 1014.80 1014.99 1015.63 1016.16 1016.39 1016.39 1016.39 1016.77 1017.37 1017.81 1018.37 1019.22 1020.13 1021.22 1022.16 1022.97 1023.72 1024.29 1024.80
Thickness
5493 5488 5488 5486 5479 5468 5465 5459 5450 5443 5437 5434 5430 5427 5425 5423 5420 5418 5416 5414 5410 5407 5405 5404 5402 5401 5397 5394 5391 5388 5387 5385 5377 5369 5366 5363 5362 5362 5360 5360 5359 5357 5356
5481 5475 5476 5473 5470 5463 5455 5451 5443 5437 5432 5426 5422 5418 5415 5414 5412 5410 5409 5405 5401 5398 5395 5395 5392 5390 5386 5384 5382 5381 5380 5378 5373 5366 5359 5355 5354 5355 5354 5354 5354 5352 5351
5482 5475 5467 5463 5456 5456 5446 5436 5436 5430 5424 5419 5413 5411 5407 5405 5403 5401 5398 5394 5392 5390 5388 5386 5383 5379 5377 5376 5375 5374 5373 5373 5369 5364 5353 5350 5348 5347 5347 5346 5346 5345 5344
5470 5464 5462 5449 5448 5439 5446 5433 5425 5423 5415 5410 5407 5403 5400 5397 5395 5391 5388 5384 5382 5380 5379 5378 5374 5371 5371 5370 5368 5367 5366 5364 5360 5356 5351 5346 5342 5340 5339 5337 5338 5337 5335
5462 5455 5451 5443 5435 5428 5428 5430 5422 5413 5408 5401 5397 5394 5393 5390 5387 5384 5379 5376 5373 5371 5369 5369 5366 5366 5365 5364 5361 5359 5359 5355 5353 5351 5346 5339 5334 5330 5329 5328 5331 5332 5328
5455 5448 5441 5431 5425 5416 5415 5415 5408 5404 5399 5392 5388 5384 5382 5381 5380 5377 5373 5369 5365 5363 5361 5360 5359 5358 5357 5356 5355 5354 5352 5348 5347 5343 5335 5330 5325 5323 5322 5322 5322 5323 5323
5448 5441 5434 5424 5417 5411 5408 5404 5399 5395 5391 5384 5378 5377 5374 5373 5372 5369 5365 5361 5357 5353 5352 5352 5351 5349 5348 5347 5346 5345 5343 5342 5340 5336 5330 5323 5320 5316 5317 5317 5315 5313 5310
5440 5432 5427 5420 5413 5406 5401 5396 5391 5387 5382 5376 5371 5369 5366 5364 5363 5360 5356 5351 5347 5344 5344 5344 5342 5340 5340 5339 5337 5334 5332 5332 5330 5328 5323 5318 5315 5312 5310 5310 5309 5307 5303
5431 5427 5421 5416 5409 5404 5398 5391 5386 5380 5375 5370 5366 5361 5358 5356 5354 5350 5346 5341 5338 5335 5335 5336 5335 5333 5334 5332 5328 5323 5320 5320 5320 5318 5314 5312 5310 5307 5304 5302 5297 5300 5297
5431 5426 5420 5413 5406 5401 5395 5388 5381 5374 5369 5365 5358 5355 5351 5348 5347 5342 5338 5333 5330 5328 5327 5327 5327 5326 5326 5324 5321 5318 5312 5311 5311 5309 5308 5306 5304 5300 5297 5295 5290 5281 5279
5427 5423 5416 5410 5403 5396 5388 5379 5372 5368 5362 5357 5353 5348 5345 5343 5339 5336 5332 5327 5325 5323 5322 5320 5320 5320 5319 5318 5316 5313 5310 5307 5304 5301 5299 5297 5295 5293 5290 5287 5284 5280 5273
5420 5416 5411 5405 5397 5388 5379 5369 5363 5357 5353 5350 5346 5343 5339 5337 5333 5331 5326 5322 5320 5319 5316 5314 5314 5314 5312 5311 5309 5307 5304 5299 5296 5293 5291 5288 5284 5282 5281 5279 5277 5274 5272
5414 5408 5404 5399 5391 5383 5372 5362 5356 5351 5349 5346 5342 5338 5332 5330 5326 5324 5321 5318 5314 5311 5311 5309 5308 5308 5305 5302 5300 5298 5295 5290 5285 5281 5279 5278 5278 5278 5274 5271 5268 5265 5263
5409 5403 5397 5392 5383 5377 5369 5360 5355 5351 5348 5344 5340 5334 5328 5322 5319 5316 5313 5312 5309 5304 5304 5303 5302 5300 5296 5292 5288 5288 5284 5281 5277 5274 5271 5271 5271 5267 5263 5260 5255 5252 5248
5405 5400 5394 5388 5381 5373 5366 5360 5355 5352 5349 5344 5338 5334 5324 5314 5314 5315 5311 5306 5302 5299 5293 5289 5284 5281 5278 5276 5274 5274 5273 5270 5268 5266 5262 5260 5258 5256 5252 5249 5245 5240 5235
5398 5393 5390 5384 5377 5371 5363 5356 5351 5348 5345 5343 5340 5335 5326 5325 5317 5312 5308 5304 5298 5293 5285 5279 5276 5274 5272 5268 5266 5265 5264 5261 5260 5257 5252 5249 5246 5243 5239 5236 5232 5227 5222
5391 5387 5382 5378 5373 5368 5362 5355 5348 5341 5340 5339 5335 5333 5328 5322 5314 5309 5304 5299 5293 5287 5281 5274 5272 5268 5266 5263 5262 5259 5257 5256 5254 5249 5244 5240 5235 5230 5225 5221 5218 5214 5210
5382 5378 5375 5371 5367 5362 5357 5351 5345 5339 5334 5330 5330 5327 5323 5317 5312 5306 5300 5291 5286 5283 5279 5275 5271 5267 5263 5259 5257 5255 5252 5248 5244 5241 5236 5231 5226 5222 5214 5211 5207 5201 5196
5372 5369 5365 5362 5359 5355 5350 5344 5340 5333 5327 5321 5319 5318 5315 5311 5306 5302 5296 5291 5286 5282 5279 5273 5269 5264 5259 5256 5253 5251 5247 5243 5239 5233 5229 5224 5219 5213 5207 5203 5198 5192 5186
5361 5358 5356 5353 5349 5345 5341 5338 5334 5329 5323 5318 5315 5311 5306 5302 5300 5296 5292 5288 5284 5279 5275 5272 5265 5258 5255 5251 5247 5244 5241 5236 5232 5226 5221 5215 5210 5204 5198 5193 5186 5180 5175
5351 5348 5345 5343 5341 5337 5334 5331 5327 5322 5318 5314 5310 5304 5301 5298 5295 5292 5287 5284 5280 5274 5269 5265 5261 5256 5251 5246 5242 5238 5234 5230 5224 5219 5213 5206 5201 5193 5189 5184 5178 5171 5165
5341 5340 5338 5337 5334 5331 5328 5325 5320 5316 5312 5308 5304 5299 5294 5290 5287 5285 5282 5278 5274 5271 5265 5260 5255 5250 5246 5241 5237 5232 5228 5223 5217 5211 5205 5198 5192 5186 5181 5173 5166 5159 5152
5330 5330 5328 5327 5325 5321 5317 5314 5310 5307 5304 5301 5297 5292 5288 5284 5280 5276 5273 5270 5265 5261 5257 5252 5247 5243 5239 5235 5230 5226 5221 5217 5212 5205 5199 5191 5184 5178 5171 5163 5154 5145 5137
5319 5318 5317 5314 5312 5308 5306 5303 5301 5298 5295 5292 5290 5286 5283 5279 5275 5271 5267 5262 5256 5252 5248 5243 5239 5236 5232 5228 5223 5219 5215 5211 5205 5199 5192 5185 5177 5168 5159 5148 5139 5129 5120
5307 5308 5308 5304 5300 5297 5295 5292 5289 5287 5283 5281 5278 5276 5273 5270 5266 5262 5258 5254 5250 5245 5240 5236 5232 5229 5224 5220 5216 5212 5208 5203 5197 5190 5182 5174 5165 5154 5143 5132 5120 5110 5100
5299 5298 5295 5292 5288 5286 5284 5280 5278 5275 5271 5269 5267 5263 5260 5258 5255 5252 5249 5245 5240 5236 5233 5229 5224 5220 5214 5208 5204 5200 5195 5189 5181 5174 5166 5155 5144 5132 5120 5110 5099 5090 5081